Regional Weather Roundup
Issued by NWS

Home | Current Version | Previous Version | Text Only | Print | Product List | Glossary Off
Versions: 1 2 3 4 5 6 7 8 9 10 11 12 13 14 15 16 17 18 19 20 21 22 23 24 25 26 27 28 29 30 31 32 33 34 35 36 37 38 39 40 41 42 43 44 45 46 47 48 49 50

458
ASUS43 KTOP 200408
RWRKS

WEATHER ROUNDUP FOR KANSAS
NATIONAL WEATHER SERVICE GOODLAND KS
1100 PM CDT SAT AUG 19 2017

NOTE:  "FAIR" INDICATES FEW OR NO CLOUDS BELOW 12,000 FEET WITH NO
SIGNIFICANT WEATHER AND/OR OBSTRUCTIONS TO VISIBILITY.

KSZ001>006-013>018-027>032-041>047-200500-
NORTHWEST KANSAS

CITY           SKY/WX    TMP DP  RH WIND       PRES   REMARKS
GOODLAND       CLEAR     77  54  44 SW15G24   29.95R
HAYS           CLOUDY    82  66  58 S9        29.89R
HILL CITY      CLOUDY    82  62  50 SW9       29.87S
RUSSELL        PTCLDY    82  67  60 S13       29.87R
$$

KSZ061>065-074>080-084>089-200500-
SOUTHWEST KANSAS

CITY           SKY/WX    TMP DP  RH WIND       PRES   REMARKS
DODGE CITY     CLEAR     80  62  54 S9        29.95S
ELKHART          N/A     71  59  66 SW7         N/A
GARDEN CITY    PTCLDY    76  64  66 S9        29.95R
GREAT BEND     PTCLDY    81  68  64 S12       29.91R
LIBERAL        CLEAR     75  67  76 S10       29.98R
PRATT          PTCLDY    81  64  54 S12       29.93R
$$

KSZ066>073-081>083-090>101-200500-
SOUTHEAST KANSAS

CITY           SKY/WX    TMP DP  RH WIND       PRES   REMARKS
CHANUTE        CLOUDY    80  77  90 S5        29.95R
COFFEYVILLE    CLOUDY    83  77  82 S8        29.93R
HUTCHINSON     CLEAR     77  64  64 SE6       29.91R
MEDICINE LODGE   N/A     81  69  67 SE8       29.91S
NEWTON         CLEAR     76  71  85 SE8       29.93S
PARSONS        CLOUDY    83  76  79 S5        29.96R
WICHITA INTL   CLOUDY    79  71  76 S7        29.91S
WICHITA JABRA  CLEAR     80  75  84 S9        29.92S
WICHITA MCCONL CLOUDY    81  70  69 S8        29.92S
WINFIELD       MOCLDY    82  75  79 SE6       29.94R
$$

KSZ007>012-019>026-033>040-048>060-102>105-200500-
NORTHEAST KANSAS

CITY           SKY/WX    TMP DP  RH WIND       PRES   REMARKS
CONCORDIA      CLOUDY    80  71  74 S17       29.87R
EMPORIA        CLEAR     79  73  82 SE8       29.93R
LAWRENCE       CLEAR     75  74  96 E6        29.93R
MANHATTAN      CLEAR     82  75  79 S10       29.89R
MARYSVILLE     CLEAR     81  72  74 S8        29.89R
OLATHE IND     CLEAR     77  73  87 SE6       29.96R
OLATHE EXE     CLEAR     75  74  96 S6        29.96R
SALINA         PTCLDY    84  64  50 SE12      29.88R
TOPEKA BILLARD CLEAR     81  77  88 SE9       29.91S
TOPEKA FORBES  CLEAR     81  77  88 SE8       29.93R
$$




USA.gov is the U.S. government's official web portal to all federal, state and local government web resources and services.